Latest Weather Observations for Richmond

IDN60901

Issued at 7:41 pm EDT Thursday 19 January 2017 (issued every 10 minutes, with the page automatically refreshed every 10 minutes)

About weather observations | Map of Sydney area stations | Latest observations for Sydney area | Other Formats
Station Details ID: 067105 Name: RICHMOND RAAF Lat: -33.60 Lon: 150.78 Height: 19.0 m
Data from the previous 72 hours. | See also: Recent months at Richmond
Date/Time
EDT
Temp
°C
App
Temp
°C
Dew
Point
°C
Rel
Hum
%
Delta-T
°C
Wind Press
QNH
hPa
Press
MSL
hPa
Rain since
9am
mm
Dir  Spd
km/h
Gust
km/h
Spd
kts
Gust
kts
19/07:30pm 20.7 20.7 16.3 76 2.7 ENE 11 17 6 9 1011.2 1011.1 1.6
19/07:00pm 20.7 21.3 16.7 78 2.4 ENE 9 13 5 7 1011.3 1011.2 1.6
19/06:30pm 20.7 21.3 16.7 78 2.4 ENE 9 15 5 8 1011.5 1011.4 1.6
19/06:00pm 20.4 20.5 17.4 83 1.8 ENE 13 17 7 9 1011.6 1011.5 1.6
19/05:30pm 20.5 20.5 17.1 81 2.1 ENE 13 17 7 9 1011.9 1011.8 1.6
19/05:00pm 20.6 20.7 17.4 82 2.0 ENE 13 19 7 10 1012.1 1012.0 1.6
19/04:30pm 19.6 19.7 17.4 87 1.3 ENE 13 19 7 10 1012.6 1012.5 1.6
19/04:00pm 20.1 21.4 18.4 90 1.1 NNE 9 13 5 7 1012.9 1012.8 1.6
19/03:32pm 19.8 21.2 18.6 93 0.7 NE 9 13 5 7 1013.3 1013.2 1.6
19/03:30pm 19.8 21.3 18.8 94 0.6 NE 9 13 5 7 1013.3 1013.2 1.6
19/03:27pm 19.4 21.1 18.4 94 0.6 ENE 7 13 4 7 1013.4 1013.3 1.6
19/03:00pm 19.3 20.4 18.1 93 0.7 ESE 9 13 5 7 1013.7 1013.6 1.0
19/02:33pm 19.5 21.0 17.6 89 1.2 E 6 9 3 5 1013.7 1013.6 0.4
19/02:31pm 19.7 21.3 17.8 89 1.2 ENE 6 9 3 5 1013.7 1013.6 0.4
19/02:30pm 19.6 21.1 17.6 88 1.2 NE 6 9 3 5 1013.7 1013.6 0.0
19/02:27pm 19.5 20.9 17.3 87 1.3 NNE 6 9 3 5 1013.8 1013.7 0.0
19/02:10pm 19.8 21.2 17.9 89 1.2 NE 7 9 4 5 1013.9 1013.8 0.0
19/02:00pm 19.8 21.5 18.5 92 0.8 NE 7 11 4 6 1014.0 1013.9 0.0
19/01:58pm 19.5 21.0 18.0 91 0.9 NE 7 11 4 6 1014.0 1013.9 0.0
19/01:57pm 19.5 20.6 18.0 91 0.9 NE 9 11 5 6 1014.0 1013.9 0.0
19/01:30pm 19.5 18.6 16.9 85 1.6 ESE 17 22 9 12 1014.4 1014.3 0.0
19/01:00pm 21.2 21.3 15.5 70 3.4 SE 9 17 5 9 1014.5 1014.4 0.0
19/12:30pm 21.8 22.0 14.7 64 4.2 ESE 7 13 4 7 1014.7 1014.6 0.0
19/12:00pm 21.7 20.7 14.6 64 4.2 SE 13 17 7 9 1014.9 1014.8 0.0
19/11:30am 21.6 21.3 14.5 64 4.2 SSE 9 15 5 8 1015.3 1015.2 0.0
19/11:00am 21.9 22.0 14.5 63 4.3 SSE 7 17 4 9 1015.3 1015.2 0.0
19/10:30am 21.6 21.5 13.8 61 4.5 S 7 13 4 7 1015.4 1015.3 0.0
19/10:00am 21.6 21.3 14.3 63 4.3 SSW 9 13 5 7 1015.3 1015.2 0.0
19/09:30am 21.2 20.4 13.9 63 4.2 SW 11 15 6 8 1015.3 1015.2 0.0
19/09:00am 21.1 20.5 14.5 66 3.9 SSW 11 13 6 7 1015.5 1015.4 0.4
19/08:30am 20.5 20.3 14.6 69 3.4 SSW 9 15 5 8 1015.4 1015.3 0.4
19/08:00am 20.1 20.4 15.9 77 2.5 SW 9 13 5 7 1015.4 1015.3 0.4
19/07:30am 19.3 19.4 15.4 78 2.3 SW 9 11 5 6 1015.2 1015.1 0.4
19/07:00am 19.0 19.6 15.3 79 2.2 SW 6 7 3 4 1015.0 1014.9 0.4
19/06:30am 18.8 19.2 15.3 80 2.1 WSW 7 11 4 6 1014.7 1014.6 0.4
19/06:00am 18.7 19.2 15.6 82 1.8 WSW 7 9 4 5 1014.6 1014.5 0.4
19/05:30am 18.6 19.2 15.7 83 1.7 SW 7 13 4 7 1014.6 1014.5 0.4
19/05:00am 18.5 18.2 15.4 82 1.8 SW 11 17 6 9 1014.5 1014.4 0.4
19/04:30am 18.5 18.8 16.1 86 1.4 SW 9 13 5 7 1014.2 1014.1 0.4
19/04:00am 18.4 18.5 16.4 88 1.2 SW 11 17 6 9 1014.4 1014.3 0.4
19/03:30am 18.2 17.9 16.5 90 1.0 SW 13 17 7 9 1014.6 1014.5 0.4
19/03:00am 18.1 18.1 17.1 94 0.6 WSW 13 17 7 9 1014.7 1014.6 0.4
19/02:30am 18.2 18.3 17.4 95 0.5 WSW 13 17 7 9 1015.1 1015.0 0.4
19/02:00am 18.2 19.0 17.4 95 0.5 WSW 9 11 5 6 1015.4 1015.3 0.4
19/01:30am 18.2 18.8 17.7 97 0.3 S 11 19 6 10 1015.7 1015.6 0.4
19/01:24am 18.0 17.8 17.5 97 0.3 S 15 20 8 11 1015.8 1015.7 0.4
19/01:22am 18.0 17.8 17.5 97 0.3 SSE 15 22 8 12 1015.8 1015.7 0.4
19/01:00am 18.3 18.1 17.7 96 0.4 SSE 15 20 8 11 1015.9 1015.8 0.4
19/12:48am 18.5 18.0 17.7 95 0.5 SSE 17 24 9 13 1016.1 1016.0 0.2
19/12:47am 18.5 18.0 17.7 95 0.5 SSE 17 24 9 13 1016.1 1016.0 0.0
19/12:42am 18.8 18.3 17.8 94 0.6 SSE 17 24 9 13 1015.9 1015.8 0.0
19/12:37am 18.8 18.2 17.6 93 0.7 SSE 17 22 9 12 1015.8 1015.7 0.0
19/12:34am 18.7 18.0 17.4 92 0.8 SSE 17 22 9 12 1015.9 1015.8 0.0
19/12:30am 19.0 18.5 17.8 93 0.7 SSE 17 22 9 12 1015.9 1015.8 0.0
19/12:23am 19.1 18.9 17.6 91 0.9 S 15 22 8 12 1016.0 1015.9 0.0
19/12:17am 19.1 19.4 17.8 92 0.8 S 13 20 7 11 1016.0 1015.9 0.0
19/12:00am 19.1 17.9 17.4 90 1.0 SSE 20 30 11 16 1015.9 1015.8 0.0
 
Date/Time
EDT
Temp
°C
App
Temp
°C
Dew
Point
°C
Rel
Hum
%
Delta-T
°C
Wind Press
QNH
hPa
Press
MSL
hPa
Rain since
9am
mm
Dir  Spd
km/h
Gust
km/h
Spd
kts
Gust
kts
18/11:30pm 21.4 20.3 16.4 73 3.0 SSE 17 28 9 15 1015.9 1015.8 0.0
18/11:00pm 22.0 21.6 16.1 69 3.6 S 13 22 7 12 1015.8 1015.7 0.0
18/10:30pm 22.3 21.9 16.3 69 3.6 SSE 13 19 7 10 1015.9 1015.8 0.0
18/10:00pm 22.5 22.1 16.3 68 3.8 SE 13 20 7 11 1015.3 1015.2 0.0
18/09:30pm 22.7 22.4 16.5 68 3.8 SSE 13 19 7 10 1015.0 1014.9 0.0
18/09:00pm 22.7 21.6 16.3 67 3.9 SSE 17 22 9 12 1014.8 1014.7 0.0
18/08:30pm 23.0 21.3 16.3 66 4.1 SSE 20 30 11 16 1013.9 1013.8 0.0
18/08:00pm 23.4 21.1 16.7 66 4.1 SSE 24 35 13 19 1013.0 1012.9 0.0
18/07:30pm 24.1 21.2 17.1 65 4.3 SSE 28 37 15 20 1012.0 1011.9 0.0
18/07:00pm 24.8 21.6 17.3 63 4.7 SE 30 39 16 21 1011.0 1010.9 0.0
18/06:30pm 25.7 22.8 17.1 59 5.3 SE 28 37 15 20 1010.2 1010.1 0.0
18/06:00pm 26.5 22.9 17.3 57 5.8 SE 32 43 17 23 1009.2 1009.1 0.0
18/05:30pm 28.1 25.2 17.9 54 6.5 SE 30 43 16 23 1008.2 1008.1 0.0
18/05:00pm 29.6 25.6 18.4 51 7.2 SE 37 43 20 23 1007.6 1007.5 0.0
18/04:30pm 30.6 27.5 18.3 47 7.9 SE 32 43 17 23 1007.0 1006.9 0.0
18/04:00pm 30.2 26.2 17.6 46 8.0 SE 35 48 19 26 1006.6 1006.5 0.0
18/03:30pm 31.5 26.6 18.1 44 8.6 SE 41 52 22 28 1005.7 1005.6 0.0
18/03:00pm 32.9 27.3 17.5 39 9.9 ESE 43 56 23 30 1004.3 1004.2 0.0
18/02:30pm 34.1 29.3 16.5 35 11.2 SE 37 52 20 28 1003.9 1003.8 0.0
18/02:18pm 36.2 31.7 17.4 33 12.2 SE 37 56 20 30 1003.4 1003.3 0.0
18/02:14pm 33.9 29.4 15.4 33 11.5 SSW 33 56 18 30 1003.4 1003.3 0.0
18/02:11pm 36.3 33.1 14.3 27 13.6 W 24 44 13 24 1003.3 1003.2 0.0
18/02:00pm 41.7 36.9 11.7 17 18.3 WNW 28 41 15 22 1003.0 1002.9 0.0
18/01:30pm 42.2 38.2 12.9 18 18.2 W 26 35 14 19 1003.5 1003.4 0.0
18/01:02pm 41.9 36.8 11.8 17 18.4 W 30 50 16 27 1003.9 1003.8 0.0
18/01:00pm 42.8 37.6 11.6 16 19.1 W 30 39 16 21 1004.0 1003.9 0.0
18/12:30pm 41.9 36.7 13.5 19 17.7 WNW 33 44 18 24 1004.4 1004.3 0.0
18/12:27pm 42.2 37.2 12.1 17 18.5 WNW 30 44 16 24 1004.4 1004.3 0.0
18/12:00pm 41.8 38.5 15.0 21 17.1 NW 26 41 14 22 1004.4 1004.3 0.0
18/11:30am 41.5 37.6 15.5 22 16.7 WNW 30 44 16 24 1004.7 1004.6 0.0
18/11:19am 40.9 36.4 15.0 22 16.4 WNW 32 46 17 25 1004.6 1004.5 0.0
18/11:00am 40.0 35.9 14.9 22 15.9 NW 30 46 16 25 1005.0 1004.9 0.0
18/10:41am 39.5 35.1 15.2 24 15.4 NW 32 50 17 27 1005.0 1004.9 0.0
18/10:30am 39.7 35.7 15.3 23 15.5 NW 30 44 16 24 1005.1 1005.0 0.0
18/10:09am 39.5 35.6 16.4 25 14.9 WNW 32 50 17 27 1005.2 1005.1 0.0
18/10:00am 38.7 33.9 15.7 25 14.7 NW 35 50 19 27 1004.9 1004.8 0.0
18/09:48am 38.7 34.3 15.7 25 14.6 WNW 33 52 18 28 1005.0 1004.9 0.0
18/09:30am 38.4 33.8 16.1 27 14.3 WNW 35 48 19 26 1005.3 1005.2 0.0
18/09:00am 37.6 33.0 16.0 28 13.8 WNW 35 46 19 25 1005.4 1005.3 0.0
18/08:30am 37.1 32.5 16.1 29 13.4 WNW 35 57 19 31 1005.5 1005.4 0.0
18/08:14am 36.4 33.1 16.0 29 12.9 WNW 28 46 15 25 1005.4 1005.3 0.0
18/08:00am 35.9 34.1 16.1 30 12.6 NW 20 33 11 18 1005.6 1005.5 0.0
18/07:30am 34.8 32.9 15.7 32 12.0 NW 20 30 11 16 1005.4 1005.3 0.0
18/07:00am 33.9 32.2 15.8 33 11.4 NW 19 24 10 13 1005.1 1005.0 0.0
18/06:30am 33.4 31.4 15.4 34 11.2 NW 20 28 11 15 1004.7 1004.6 0.0
18/06:00am 33.8 31.0 15.3 33 11.6 NW 24 33 13 18 1004.2 1004.1 0.0
18/05:30am 34.0 31.3 15.5 33 11.6 NW 24 33 13 18 1003.9 1003.8 0.0
18/05:00am 33.5 31.1 15.5 34 11.3 NW 22 32 12 17 1003.8 1003.7 0.0
18/04:30am 29.9 31.4 18.0 48 7.6 N 7 13 4 7 1003.8 1003.7 0.0
18/04:00am 28.4 29.5 18.8 56 6.2 NE 11 15 6 8 1003.8 1003.7 0.0
18/03:30am 28.3 28.9 18.7 56 6.2 NE 13 15 7 8 1003.8 1003.7 0.0
18/03:00am 28.1 29.0 19.3 58 5.7 NE 13 13 7 7 1004.1 1004.0 0.0
18/02:30am 28.4 29.3 19.3 57 5.9 NNE 13 17 7 9 1004.3 1004.2 0.0
18/02:00am 28.2 30.2 19.2 58 5.8 N 7 11 4 6 1004.7 1004.6 0.0
18/01:30am 29.3 30.8 19.0 53 6.7 NNW 9 11 5 6 1005.0 1004.9 0.0
18/01:00am 30.0 32.2 19.7 54 6.8 NNW 7 9 4 5 1005.4 1005.3 0.0
18/12:30am 30.0 32.1 19.4 53 6.9 NNW 7 7 4 4 1005.9 1005.8 0.0
18/12:00am 30.5 32.7 19.5 51 7.2 N 7 9 4 5 1006.2 1006.1 0.0
 
Date/Time
EDT
Temp
°C
App
Temp
°C
Dew
Point
°C
Rel
Hum
%
Delta-T
°C
Wind Press
QNH
hPa
Press
MSL
hPa
Rain since
9am
mm
Dir  Spd
km/h
Gust
km/h
Spd
kts
Gust
kts
17/11:30pm 29.6 32.5 19.9 56 6.4 NNW 4 9 2 5 1006.5 1006.4 0.0
17/11:00pm 30.3 33.4 19.6 52 7.0 NW 2 6 1 3 1006.8 1006.7 0.0
17/10:30pm 31.6 33.1 18.9 47 8.3 W 9 15 5 8 1007.1 1007.0 0.0
17/10:00pm 33.2 34.8 17.8 40 9.9 SSW 6 9 3 5 1007.3 1007.2 0.0
17/09:30pm 35.0 34.6 17.2 34 11.4 S 15 20 8 11 1007.4 1007.3 0.0
17/09:00pm 33.6 35.1 17.7 38 10.3 N 6 9 3 5 1006.9 1006.8 0.0
17/08:30pm 34.3 33.7 17.5 36 10.8 NE 17 20 9 11 1006.2 1006.1 0.0
17/08:00pm 35.1 34.0 17.3 34 11.5 NE 19 30 10 16 1006.0 1005.9 0.0
17/07:30pm 37.2 35.9 17.2 30 12.9 ENE 20 26 11 14 1005.7 1005.6 0.0
17/07:00pm 39.2 39.2 17.3 27 14.3 ENE 13 19 7 10 1005.3 1005.2 0.0
17/06:30pm 41.8 40.0 13.4 18 17.7 NW 15 22 8 12 1005.1 1005.0 0.0
17/06:00pm 42.3 40.2 14.6 19 17.6 NW 19 28 10 15 1005.1 1005.0 0.0
17/05:30pm 42.8 40.3 13.4 18 18.4 NW 19 32 10 17 1005.3 1005.2 0.0
17/05:00pm 43.4 40.7 13.0 17 19.0 WNW 19 30 10 16 1005.5 1005.4 0.0
17/04:30pm 42.9 40.6 11.7 16 19.1 NW 15 24 8 13 1005.8 1005.7 0.0
17/04:00pm 41.3 39.6 11.3 17 18.2 WSW 11 15 6 8 1006.3 1006.2 0.0
17/03:30pm 42.7 39.7 12.5 17 18.7 W 20 33 11 18 1006.6 1006.5 0.0
17/03:00pm 42.5 40.3 13.2 18 18.3 WNW 17 26 9 14 1007.0 1006.9 0.0
17/02:30pm 41.9 40.8 14.3 20 17.4 WNW 13 20 7 11 1007.4 1007.3 0.0
17/02:00pm 41.5 39.3 13.2 19 17.6 W 17 32 9 17 1007.9 1007.8 0.0
17/01:30pm 41.3 40.0 13.8 20 17.2 W 13 32 7 17 1008.3 1008.2 0.0
17/01:00pm 39.5 40.2 17.0 26 14.6 NE 9 17 5 9 1009.2 1009.1 0.0
17/12:30pm 38.6 40.1 18.9 31 13.1 NNE 9 17 5 9 1010.0 1009.9 0.0
17/12:00pm 36.8 38.9 20.1 37 11.2 ENE 9 15 5 8 1010.5 1010.4 0.0
17/11:30am 33.9 36.2 20.6 45 8.9 ENE 9 15 5 8 1011.2 1011.1 0.0
17/11:00am 31.4 34.0 20.0 50 7.5 E 6 11 3 6 1011.8 1011.7 0.0
17/10:30am 29.1 31.1 19.1 54 6.5 NNE 7 13 4 7 1012.3 1012.2 0.0
17/10:00am 27.6 29.7 19.4 61 5.3 NNE 7 13 4 7 1012.8 1012.7 0.0
17/09:30am 25.7 27.4 19.3 67 4.1 NNE 9 15 5 8 1013.3 1013.2 0.0
17/09:00am 24.5 26.4 18.9 71 3.6 NNE 7 11 4 6 1013.7 1013.6 0.0
17/08:30am 23.6 25.8 18.3 72 3.3 ENE 4 48 2 26 1014.1 1014.0 0.0
17/08:00am 22.5 24.4 18.5 78 2.5 SE 6 7 3 4 1014.3 1014.2 0.0
17/07:30am 21.0 24.0 18.4 85 1.6 CALM 0 0 0 0 1014.0 1013.9 0.0
17/07:00am 19.3 22.2 18.3 94 0.6 CALM 0 0 0 0 1013.9 1013.8 0.0
17/06:30am 18.4 21.2 17.9 97 0.3 CALM 0 0 0 0 1013.6 1013.5 0.0
17/06:00am 18.5 20.2 18.0 97 0.3 SE 6 7 3 4 1013.6 1013.5 0.0
17/05:30am 18.1 20.7 17.6 97 0.3 CALM 0 0 0 0 1013.3 1013.2 0.0
17/05:00am 18.7 20.5 18.2 97 0.3 NW 6 11 3 6 1013.2 1013.1 0.0
17/04:30am 18.7 21.6 18.2 97 0.3 CALM 0 0 0 0 1013.2 1013.1 0.0
17/04:00am 18.5 21.1 17.5 94 0.6 CALM 0 0 0 0 1013.1 1013.0 0.0
17/03:30am 18.8 21.4 17.5 92 0.8 CALM 0 0 0 0 1013.2 1013.1 0.0
17/03:00am 19.0 21.7 17.7 92 0.8 CALM 0 0 0 0 1013.5 1013.4 0.0
17/02:30am 19.6 22.4 17.9 90 1.0 CALM 0 0 0 0 1013.6 1013.5 0.0
17/02:00am 19.7 22.4 17.8 89 1.2 CALM 0 0 0 0 1013.8 1013.7 0.0
17/01:30am 19.8 20.9 17.9 89 1.2 SSW 9 11 5 6 1014.2 1014.1 0.0
17/01:00am 20.6 23.3 17.8 84 1.7 CALM 0 0 0 0 1014.1 1014.0 0.0
17/12:30am 20.8 22.3 17.6 82 2.0 S 6 6 3 3 1014.5 1014.4 0.0
17/12:00am 21.7 24.4 17.7 78 2.5 CALM 0 0 0 0 1014.7 1014.6 0.0
 
Date/Time
EDT
Temp
°C
App
Temp
°C
Dew
Point
°C
Rel
Hum
%
Delta-T
°C
Wind Press
QNH
hPa
Press
MSL
hPa
Rain since
9am
mm
Dir  Spd
km/h
Gust
km/h
Spd
kts
Gust
kts
16/11:30pm 22.1 24.0 17.7 76 2.7 ENE 4 6 2 3 1014.8 1014.7 0.0
16/11:00pm 22.6 24.0 17.7 74 3.0 ENE 7 11 4 6 1014.9 1014.8 0.0
16/10:30pm 23.2 23.9 17.9 72 3.3 E 11 13 6 7 1015.0 1014.9 0.0
16/10:00pm 23.9 24.0 18.3 71 3.5 E 15 19 8 10 1014.9 1014.8 0.0
16/09:30pm 24.4 24.5 18.3 69 3.8 E 15 20 8 11 1014.5 1014.4 0.0
16/09:00pm 24.9 25.4 18.4 67 4.1 E 13 17 7 9 1014.2 1014.1 0.0
16/08:30pm 26.0 26.1 18.4 63 4.8 E 15 19 8 10 1013.8 1013.7 0.0
16/08:00pm 26.9 26.8 17.9 57 5.7 E 15 19 8 10 1013.3 1013.2 0.0

Latest Capital City Observations: Canberra | Sydney | Melbourne | Brisbane | Adelaide | Perth | Hobart | Darwin

Other Formats:

Comma delimited format used in spreadsheet applications
http://www.bom.gov.au/fwo/IDN60901/IDN60901.95753.axf

JavaScript Object Notation format (JSON) in row-major order
http://www.bom.gov.au/fwo/IDN60901/IDN60901.95753.json